Terminal Aerodrome Forecast
Issued by NWS Charleston, WV

Current Version | Previous Version | Text Only | Print | Product List | Glossary Off
Versions: 1 2 3 4 5 6 7 8 9 10 11 12 13 14 15 16 17 18 19 20 21 22 23 24 25 26 27 28 29

000
FTUS41 KRLX 211100
TAFEKN
TAF
KEKN 211131Z 2112/2212 00000KT 4SM BR SKC
     FM211400 25006KT P6SM BKN025
     FM211600 26009G18KT 6SM BR VCTS BKN025CB
     FM211800 26011G21KT 5SM TSRA BR OVC025CB
     FM220100 27010G20KT P6SM VCTS BKN025CB
     FM220300 30008G17KT P6SM BKN025
     FM220500 29006KT 6SM BR BKN025
     FM221000 29005KT 3SM BR BKN008=

USA.gov is the U.S. government's official web portal to all federal, state and local government web resources and services.